www.pogodaiklimat.ru

Погода и климат >> Архив погоды >> Россия >> Забайкальский край >> Агинское


ПОГОДА в Агинском

  • Прогноз погоды в Агинском
  • Монитор погоды в Агинском
  • Климат города

АРХИВ ПОГОДЫ в Агинском

Время (UTC), дата Ветер
(напр.,м/с)
 
Видим.   Явления Облачность Т
(С)
Тd
(С)
f
(%)
Тe
(С)
Тes
(С)
Комфортность P
(гПа)
Po
(гПа)
Тmin
(С)
Tmax
(С)
R
(мм)
R24
(мм)
S
(см)
03 10.10 СЗ 4 50 км 6/3 1000 м
[Cu hum Ac trans]
+2.3 -11.5 35 -2 0 1034.7 951.7
06 10.10 СЗ 4 50 км 6/4 1000 м
[Cu med, cong Ac trans]
+3.2 -11.9 32 -0 +1 1031.8 949.3
09 10.10 З 5 50 км 9/3 1000 м
[Sc Ac und]
+1.7 -12.2 35 -3 -3 1030.9 948.0
12 10.10 СЗ 1 50 км 9/3 1000 м
[Sc Ac und]
-1.6 -9.7 54 -3 -3 1031.3 947.5 +4.1
15 10.10 штиль 0 50 км 3/0
[Ac trans]
-6.0 -9.6 76 -7 -7 1031.6 946.4
18 10.10 СЗ 1 50 км 9/0
[Ac und]
-6.3 -9.3 79 -9 -9 1030.7 945.5
21 10.10 ЮЗ 1 50 км 10/0
[Ac As]
-5.7 -8.3 82 -8 -8 1029.6 944.7
00 11.10 штиль 0 50 км 9/4 1000 м
[Sc Ac und]
-4.5 -7.5 80 -5 -5 1028.8 944.3 -7.4
03 11.10 З 2 50 км 3/3 1000 м
[Cu med, cong]
+3.7 -8.4 41 +2 +5 1025.2 943.4
06 11.10 З 5 50 км 9/6 1000 м
[Cu med, cong Ac und]
+2.5 -11.7 34 -2 -2 1024.4 942.3
09 11.10 СЗ 3 50 км 10/0
[Ac As]
+1.0 -9.5 45 -3 -3 1025.2 942.6
12 11.10 З 1 50 км 10/0
[Ac As]
-0.6 -7.4 60 -2 -2 1025.8 942.7 +3.8
15 11.10 ЮЗ 1 50 км 10/3 1000 м
[Sc Ac As]
-2.0 -6.6 71 -4 -4 1025.6 942.1
18 11.10 штиль 0 50 км 10/0
[Ac As]
-2.3 -6.5 73 -3 -3 1024.5 941.1
21 11.10 ЮЗ 1 50 км 10/0
[Ac As]
-2.5 -6.3 75 -5 -5 1023.2 939.8
00 12.10 ЮЗ 3 50 км 10/0
[Ac As]
-2.0 -5.7 76 -7 -7 1022.0 938.8 -3.1
03 12.10 СЗ 3 50 км 10/1 1000 м
[Cu med, cong Ac As]
+1.0 -9.0 47 -3 -2 1020.2 938.1
06 12.10 СЗ 2 50 км 10/3 1000 м
[Sc Ac As]
+1.7 -10.8 39 -1 0 1018.7 936.8
09 12.10 СЗ 1 50 км 9/1 1000 м
[Sc Ac und]
+1.5 -10.4 41 +1 +1 1018.6 936.7
12 12.10 СЗ 1 50 км 8/0
[Ac trans]
-2.4 -9.2 60 -4 -4 1020.6 937.4 +2.0
15 12.10 З 2 50 км ясно -6.8 -10.3 76 -11 -11 1022.7 938.1
18 12.10 З 2 50 км 10/0
[Cs]
-8.8 -11.3 82 -13 -13 1024.0 938.6
21 12.10 З 1 50 км 9/0
[Ac trans Ci fib]
-9.3 -11.5 84 -12 -12 1024.0 938.4
00 13.10 З 1 50 км 10/0
[Ac lent Cs]
-7.2 -9.9 81 -10 -9 1024.0 939.1 -9.6
03 13.10 СЗ 5 50 км 10/1 1000 м
[Cu hum Ci fib]
+2.2 -9.3 42 -2 -1 1021.0 939.1
06 13.10 З 6 50 км 10/3 1000 м
[Cu med, cong Ci fib]
+3.8 -10.4 35 -1 0 1019.9 938.5
09 13.10 З 6-10
{10}
50 км {ливн. осадки} 10/5 600 м
[Cb cap Ci fib]
+2.5 -8.6 44 -3 -3 1021.0 939.2
12 13.10 З 3
{11}
50 км {ливн. осадки} ясно -1.7 -5.7 74 -6 -6 1024.0 940.8 +4.0 0.0
15 13.10 ЮЗ 3 50 км ясно -5.3 -7.1 87 -11 -11 1026.3 941.8
18 13.10 З 2 50 км 10/0
[Ac trans Ci fib]
-3.8 -5.9 85 -8 -8 1026.6 942.5
21 13.10 З 2 50 км 10/0
[Ac trans Ci fib]
-2.3 -4.9 82 -6 -6 1026.6 943.0
00 14.10 З 2 50 км ясно -4.6 -7.1 83 -9 -8 1028.7 944.2 -6.3
03 14.10 СЗ 4 50 км 3/3 1000 м
[Cu hum]
+2.1 -7.7 48 -2 -0 1027.1 944.7
06 14.10 СЗ 3 50 км 5/5 1000 м
[Cu med, cong]
+4.0 -11.2 32 +1 +3 1025.6 943.8
09 14.10 СЗ 4 50 км 4/4 1000 м
[Cu med, cong]
+2.6 -10.2 38 -1 -1 1025.9 943.7
12 14.10 ЮЗ 1 50 км ясно -4.3 -10.0 64 -6 -6 1029.5 945.0 +4.1
15 14.10 З 1 50 км ясно -8.9 -11.5 81 -11 -11 1031.8 945.7
18 14.10 З 2 50 км ясно -10.2 -12.4 84 -15 -15 1032.7 946.1
21 14.10 З 2 50 км ясно -11.4 -13.5 84 -16 -16 1033.3 946.3
00 15.10 штиль 0 50 км 8/0
[Ac lent Ci fib]
-10.3 -12.6 83 -11 -10 1033.6 946.9 -12.5
03 15.10 З 5 50 км 6/1 1000 м
[Cu med, cong Ci fib]
+1.4 -9.9 43 -3 -2 1029.0 946.2
06 15.10 З 6
{12}
50 км 8/8 1000 м
[Cu med, cong]
+1.5 -13.8 31 -4 -3 1028.3 945.6
09 15.10 З 5
{12}
50 км 9/9 1000 м
[Sc diur, vesp]
+0.9 -13.1 34 -4 -4 1028.3 945.4
12 15.10 З 5
{12}
50 км 9/0
[Ac und]
-0.7 -12.5 40 -6 -6 1029.8 946.3 +2.3
15 15.10 Ю 1 50 км ясно -5.4 -12.5 57 -7 -7 1031.6 946.6
18 15.10 З 1 50 км ясно -8.0 -12.6 69 -10 -10 1032.0 946.2
21 15.10 З 2 50 км ясно -10.7 -13.5 80 -15 -15 1033.2 946.4
00 16.10 З 1 50 км ясно -10.1 -13.3 77 -12 -12 1034.3 947.6 -12.1
03 16.10 ЮВ 2 50 км ясно +0.8 -11.0 41 -2 +2 1030.5 947.4
06 16.10 СЗ 2 50 км ясно +3.3 -12.8 30 +1 +5 1029.2 946.9
09 16.10 СВ 2 50 км 1/0
[Ci fib]
+1.7 -13.4 32 -1 -0 1030.3 947.5
12 16.10 В 1 50 км ясно -5.0 -14.8 46 -7 -7 1034.4 949.3 +3.3
15 16.10 С 1 50 км ясно -9.0 -15.8 58 -11 -11 1036.9 950.3
18 16.10 штиль 0 50 км ясно -11.7 -16.5 67 -12 -12 1037.4 950.0
21 16.10 В 1 50 км ясно -12.7 -17.3 68 -15 -15 1036.3 948.6
00 17.10 В 2 50 км ясно -8.8 -16.1 55 -13 -13 1033.8 947.5 -13.1

 

Местоположение метеостанции Агинское (Забайкальский край, Россия): широта 51.10 долгота 114.50 высота над уровнем моря 681 м.

В архиве по умолчанию представлена погода в Агинском за последнюю неделю. Архивные данные за месяц целиком и за предыдущие месяцы, начиная с января 2011 года, Вы можете получить, выбрав интересующий диапазон дат из раскрывающегося списка и нажав кнопку "Ввод!".

Внимание! Время в таблицах - всемирное. Для получения местного времени необходимо прибавить поправку, которая в Агинском равна 9 ч.

Смотрите также архив погоды в соседних городах и на ближайших метеорологических станциях:

Погода в Курорт-Дарасуне (Забайкальский край, Россия) (57 км)
Погода в Карымской (Забайкальский край, Россия) (61 км)
Погода в Оловянной (Забайкальский край, Россия) (72 км)
Погода в Дульдурге (Забайкальский край, Россия) (84 км)
Погода в Акше (Забайкальский край, Россия) (130 км)
Погода в Чите (Забайкальский край, Россия) (133 км)
Погода в Шилке (Забайкальский край, Россия) (135 км)
Погода в Улетах (Забайкальский край, Россия) (149 км)
Погода в Бургене (Забайкальский край, Россия) (158 км)
Погода в Соловьевске (Забайкальский край, Россия) (158 км)

Пояснения к столбцам:

Ветер - указаны скорость ветра в м/с - средняя за 10 мин, порывы в срок и между сроками (в фигурных скобках) и направление, откуда дует ветер: С - северный, СВ - северо-восточный, В - восточный, ЮВ - юго-восточный, Ю - южный, ЮЗ - юго-западный, З - западный, СЗ - северо-западный.
Видимость - горизонтальная дальность видимости в метрах или километрах. При видимости от 1 до 10 км при отсутствии осадков обычно наблюдается дымка, при ухудшении видимости до 1 км и менее - туман. В сухую погоду видимость может ухудшаться дымом, пылью или мглою.
Явления - указаны атмосферные явления, наблюдавшиеся в срок или в последний час перед сроком; фигурными скобками обозначены явления, наблюдавшиеся между сроками (за 1-3 часа до срока); квадратными скобками обозначены град или гололедные отложения с указанием их диаметра в мм.
Облачность - указаны через наклонную черту общая и нижняя облачность в баллах и высота нижней границы облаков в метрах; квадратными скобками обозначены формы облаков: Ci - перистые, Cs - перисто-слоистые, Cc - перисто-кучевые, Ac - высококучевые, As - высокослоистые, Sc - слоисто-кучевые, Ns - слоисто-дождевые, Cu - кучевые, Cb - кучево-дождевые. Подробнее классификацию облаков см. в Атласе облаков (PDF).
T - Температура воздуха - температура, измеренная на высоте 2 м над землей.
Td - Температура точки росы - температура, при понижении до которой содержащийся в воздухе водяной пар достигнет насыщения.
f - Относительная влажность воздуха - влажноcть воздуха, измеренная на высоте 2 м над землей.
Te - Эффективная температура - температура, которую ощущает одетый по сезону человек в тени. Характеристика душности погоды. При расчете учитывается влияние влажности воздуха и скорости ветра на теплоощущения человека.
Tes - Эффективная температура на солнце - температура, которую ощущает человек, с поправкой на солнечный нагрев. Характеристика знойности погоды. Зависит от высоты солнца над горизонтом, облачности и скорости ветра. Ночью, в пасмурную погоду, а также при ветре 12 м/с и более поправка равна нулю.
P - Атмосферное давление - приведенное к уровню моря атмосферное давление.
Po - Атмосферное давление - измеренное на уровне метеостанции атмосферное давление.
Tmin - Минимальная температура - минимум температуры воздуха на высоте 2 м над землей.
Tmax - Максимальная температура - максимум температуры воздуха на высоте 2 м над землей.
R - Количество осадков - Количество выпавших осадков за период времени, мм. При наведении курсора мыши на число - период времени, за который выпало указанное количество осадков.
R24 - Количество осадков - Количество выпавших осадков за 24 часа, мм.
S - Снежный покров - Высота снежного покрова, см. При наведении курсора мыши на число - состояние снежного покрова и степень покрытия местности в баллах.